Location: *
(45.9500°N, 9.0833°E)
Time: 21:04:16
(UTC+00:00)

Vanguard 2 Rocket - Pass Details

Date: 14 June 2021
Orbit: 555 x 3325 km, 32.9° (Epoch: 30 July)

Event Time Altitude Azimuth Distance (km) Brightness Sun altitude
Rises 22:41:50 0° 258° (WSW) 6,616 11.3 -20.1°
Reaches altitude 10° 22:47:07 10° 252° (WSW) 5,200 10.6 -20.2°
Maximum altitude 22:59:26 39° 191° (S) 2,372 8.5 -20.5°
Enters shadow 23:04:07 24° 140° (SE) 2,557 8.7 -20.6°
Drops below altitude 10° 23:06:50 10° 125° (SE) 3,141 - -20.6°
Sets 23:09:14 0° 117° (ESE) 3,823 - -20.7°
